RESOURCESAT-2A

Last updated on Sat Apr 13 2024 01:02:24 GMT+0100 (British Summer Time)

1 41877U 16074A 24103.55407238 .00000200 00000+0 11093-3 0 9997 2 41877 98.6479 178.3357 0001393 148.9338 211.1922 14.21669120381257
UTC large
Height (km)
Speed (km/s)
/
Latitude / Longitude
Inclination (degrees)
Orbital Period (minutes)
Azimuth
Elevation
Range (km)
Doppler Factor

Next 0 passes for location: London (51.5072 / 0.1276)

Sorry there are no passes over London.